THORAD AGENA D DEB, 42497

Orbit data source: Space-Track

THORAD AGENA D DEB, 42497 is space debris in SSO originally from a launch on Wed, 08 Apr 1970 UTC launched from the Air Force Western Test Range (AFWTR). Debris objects in space refer to the collection of defunct objects orbiting the Earth. Examples of debris include non-operational satellites, rocket bodies, and fragments generated from explosions, collisions, or faulty payload assembly.

Loading next visibility...
Identifier
42497, 1970-025RB
Orbit
SSO
Last TLE update
13 hours ago
Origin
Manufacturer
Unknown
Mission
Spacecraft
Bus & Motor
Unknown
Mass
Unknown
Launch date (UTC)
1970-04-08 (55 years ago)
Launch vehicle
Unknown
Launch site
Air Force Western Test Range (AFWTR)
Object type
Payload
Rocket body
Debris
Shape & HBR
Unknown
Radar Cross Section
Small (<0.1 m²)

Expand to show TLE details & history

TLE from 13 hours ago
0 THORAD AGENA D DEB
1 42497U 70025RB  25199.40750367  .00001481  00000-0  10690-2 0  9990
2 42497 100.0239  44.9210 0029584 324.6042  35.3154 13.98364997591401
Epoch: 2025-07-18T09:46Z
TLE epoch observation values (Epoch: 2025-07-18T09:46:48.317Z)
Latitude
-0.00001°
Longitude
-38.23972°
Altitude
884.752 km
Speed
7.419 km/s
True Right ascension
02h 59m 41s
True Declination
0° 00' 00"
Sunlit
Object was in daylight at epoch
Visualization orbit readout
Latitude
-76.5123°
Longitude
95.21786°
Altitude
916.881 km
Speed
7.398 km/s
Apparent Right ascension
23h 48m 37s
Apparent Declination
-74° 00' 41"
Sunlit
Object is in daylight
Visualization observer readout
Local Sidereal Time
11:50:19
Azimuth
179.79° S
Elevation
-55.904°
Doppler factor
1
Orbital elements
Apogee altitude
918.239 km
Perigee altitude
875.195 km
Semi-major axis
7,274.854 km
Eccentricity
0.00296
Inclination
100.0239°
RAAN
44.921°
Arg. of periapsis
324.6042°
True anomaly
35.51197°
Mean anomaly
35.3154°
Eccentric anomaly
35.41362°
Mean motion
3.49789 °/min
Orbital period
102.92 mins
BSTAR
0.001069
Loading maneuver chart data...
Loading SW <> Apogee altitude chart data...
|